Home > Weather > Cardiff > Past weeks

Flag for United Kingdom Past Weather in Cardiff, Wales, United Kingdom — Yesterday and Last 2 Weeks

Now
55 °F

Cool.


Feels Like: 53 °F
Forecast: 54 / 62 °F
Wind: 9 mph from West

Location: Wales Airport

Current Time: Jun 27, 2016 at 9:23:35 PM

Latest Report: Jun 27, 2016 at 8:50 PM


Visibility: N/A

Pressure: 30.12 "Hg

Humidity: 82%

Dew Point: 50 °F

Location of CardiffLocation

Past Weather in Cardiff — Graph

°F

Cardiff Temperature Yesterday

Maximum temperature yesterday: 59 °F (at 12:50 PM)
Minimum temperature yesterday: 52 °F (at 12:50 AM)
Average temperature yesterday: 57 °F

High & Low Weather Summary for the Past Weeks

 TemperatureHumidityPressure
High66 °F (Jun 16, 5:20 PM)100% (Jun 12, 9:50 PM)30.24 "Hg (Jun 12, 9:50 PM)
Low48 °F (Jun 18, 12:50 AM)64% (Jun 17, 4:50 PM)29.36 "Hg (Jun 15, 3:20 AM)
Average58 °F89%29.89 "Hg
* Reported Jun 12 8:20 PM — Jun 27 8:20 PM, Cardiff, Weather by CustomWeather, © 2016

Note: Actual official high and low records may vary slightly from our data, if they occured in-between our weather recording intervals... More about our weather records

Advertising

Cardiff Weather History for the Previous 24 Hours

Scroll right to see more
 ConditionsComfort  
Time TempWeatherWind HumidityBarometerVisibility
8:20 PM
Mon, Jun 27
57 °FSunny.12 mph77%30.12 "Hg10 mi
7:50 PM57 °FPassing clouds.12 mph77%30.12 "HgN/A
7:20 PM57 °FPassing clouds.13 mph77%30.12 "HgN/A
6:50 PM57 °FSunny.14 mph77%30.12 "Hg10 mi
6:20 PM59 °FPassing clouds.13 mph72%30.12 "HgN/A
5:50 PM59 °FCool.14 mph72%30.12 "HgN/A
5:20 PM59 °FPassing clouds.15 mph72%30.12 "HgN/A
4:50 PM59 °FPassing clouds.17 mph77%30.12 "HgN/A
4:20 PM61 °FPassing clouds.18 mph68%30.12 "HgN/A
3:50 PM61 °FPassing clouds.17 mph68%30.12 "HgN/A
3:20 PM61 °FCool.20 mph72%30.12 "HgN/A
2:50 PM61 °FPassing clouds.18 mph72%30.12 "HgN/A
2:20 PM61 °FPassing clouds.18 mph72%30.12 "HgN/A
1:50 PM63 °FMild.20 mph68%30.12 "HgN/A
1:20 PM61 °FPassing clouds.17 mph68%30.12 "HgN/A
12:50 PM61 °FPartly sunny.15 mph68%30.12 "HgN/A
12:20 PM61 °FPassing clouds.14 mph68%30.12 "HgN/A
11:50 AM63 °FScattered clouds.15 mph64%30.12 "HgN/A
11:20 AM61 °FScattered clouds.15 mph72%30.12 "HgN/A
10:50 AM63 °FScattered clouds.13 mph73%30.12 "HgN/A
10:20 AM61 °FBroken clouds.13 mph83%30.09 "HgN/A
9:50 AM61 °FScattered clouds.13 mph83%30.09 "HgN/A
9:20 AM59 °FScattered clouds.14 mph88%30.09 "HgN/A
8:50 AM59 °FScattered clouds.14 mph88%30.09 "HgN/A
8:20 AM59 °FScattered clouds.14 mph88%30.09 "HgN/A
7:50 AM57 °FScattered clouds.12 mph88%30.07 "HgN/A
7:20 AM57 °FScattered clouds.10 mph94%30.07 "HgN/A
6:50 AM57 °FScattered clouds.10 mph88%30.07 "HgN/A
6:20 AM57 °FOvercast.12 mph94%30.07 "HgN/A
5:50 AM57 °FOvercast.10 mph94%30.04 "HgN/A
5:20 AM57 °FPassing clouds.12 mph94%30.04 "HgN/A
4:50 AM57 °FMostly cloudy.10 mph100%30.04 "HgN/A
4:20 AM57 °FLight rain. Mostly cloudy.13 mph100%30.04 "Hg3 mi
3:50 AM59 °FMostly cloudy.14 mph94%30.01 "HgN/A
3:20 AM59 °FLight rain. Mostly cloudy.14 mph94%30.01 "Hg4 mi
2:50 AM59 °FLight rain. Passing clouds.15 mph94%30.01 "HgN/A
2:20 AM59 °FDrizzle. Mostly cloudy.16 mph94%30.01 "Hg2 mi
1:50 AM59 °FLight rain. Low clouds.16 mph94%30.01 "Hg5 mi
1:20 AM59 °FLow clouds.15 mph100%30.01 "Hg4 mi
12:50 AM59 °FLow clouds.16 mph100%30.01 "Hg5 mi
12:20 AM59 °FDrizzle. Low clouds.16 mph100%30.01 "Hg2 mi
11:50 PM
Sun, Jun 26
57 °FLow clouds.16 mph100%30.01 "HgN/A
11:20 PM59 °FLight rain. Low clouds.16 mph100%30.04 "Hg5 mi
10:50 PM59 °FFog.14 mph100%30.04 "Hg2 mi
10:20 PM59 °FFog.13 mph100%30.04 "Hg1 mi
9:50 PM59 °FFog.16 mph100%30.04 "Hg1 mi
9:20 PM59 °FFog.15 mph100%30.04 "Hg0 mi
Weather by CustomWeather, © 2016

See weather overviewHow to use our weather pages